Regional Weather Roundup
Issued by NWS

Home | Current Version | Previous Version | Graphics & Text | Print | Product List | Glossary On
Versions: 1 2 3 4 5 6 7 8 9 10 11 12 13 14 15 16 17 18 19 20 21 22 23 24 25 26 27 28 29 30 31 32 33 34 35 36 37 38 39 40 41 42 43 44 45 46 47 48 49 50
000
ASUS43 KLMK 161210
RWRKY
KENTUCKY REGIONAL WEATHER ROUNDUP
NATIONAL WEATHER SERVICE LOUISVILLE KY
700 AM EST MON JAN 16 2017

NOTE "FAIR" INDICATES FEW OR NO CLOUDS BELOW 12,000 FEET
WITH NO SIGNIFICANT WEATHER AND/OR OBSTRUCTIONS TO VISIBILITY.

KYZ001>023-026-027-061>063-070>075-161300-
WESTERN AND SOUTH CENTRAL KENTUCKY

CITY           SKY/WX    TMP DP  RH WIND       PRES   REMARKS
PADUCAH        FOG       45  43  93 E6        30.16S VSB 1/2
HENDERSON      CLOUDY    43  37  81 E7        30.21S
OWENSBORO      CLOUDY    43  42  97 E6        30.23S
HOPKINSVILLE   CLOUDY    45  45 100 SE7       30.19S FOG
BOWLING GREEN  FOG       45  44  97 NE3       30.23F VSB 1/4
GLASGOW        MOCLDY   N/A N/A N/A CALM      30.23S FOG
$$

KYZ024-025-028>034-038-045-046-053-161300-
NORTH CENTRAL KENTUCKY

CITY           SKY/WX    TMP DP  RH WIND       PRES   REMARKS
LOUISVILLE/SDF CLOUDY    43  40  89 E3        30.26S
LOUISVILLE/LOU CLOUDY    43  40  89 CALM      30.27S
FORT KNOX      FOG       41  41 100 E6        30.23F VSB 3/4
$$

KYZ035>037-039>044-047>052-055>060-089>105-161300-
NORTHEAST KENTUCKY

CITY           SKY/WX    TMP DP  RH WIND       PRES   REMARKS
LEXINGTON      CLOUDY    43  40  89 SE5       30.28R
COVINGTON      FOG       38  38 100 E8        30.28R VSB 1/2 WCI  32
FRANKFORT      CLOUDY    42  38  85 SE5       30.26R
$$

KYZ054-064>069-076>088-106>120-161300-
SOUTHEAST KENTUCKY

CITY           SKY/WX    TMP DP  RH WIND       PRES   REMARKS
JACKSON        FOG       41  39  93 NE3       30.27R VSB 1/4
LONDON         CLOUDY    46  44  93 CALM      30.26R
SOMERSET       CLOUDY    45  45 100 CALM      30.28R
MIDDLESBORO    FOG       50  50 100 CALM      30.29R VSB 3/4
MONTICELLO     CLOUDY    44  44 100 VRB6      30.28R
$$





USA.gov is the U.S. government's official web portal to all federal, state and local government web resources and services.